AirNav   Phillips 66 Aviation Fuel
 
 319 users online  

H34 Huntsville Municipal Airport
Huntsville, Arkansas, USA

GOING TO HUNTSVILLE?


FAA INFORMATION EFFECTIVE 26 APRIL 2018

Location

FAA Identifier: H34
Lat/Long: 36-04-41.0000N / 093-45-18.1000W
36-04.683333N / 093-45.301667W
36.0780556 / -93.7550278
(estimated)
Elevation: 1747.9 ft. / 532.8 m (surveyed)
Variation: 01E (2015)
From city: 2 miles SW of HUNTSVILLE, AR
Time zone: UTC -5 (UTC -6 during Standard Time)
Zip code: 72740

Airport Operations

Airport use: Open to the public
Activation date: 07/1986
Control tower: no
ARTCC: MEMPHIS CENTER
FSS: JONESBORO FLIGHT SERVICE STATION
NOTAMs facility: JBR (NOTAM-D service available)
Attendance: UNATNDD
Wind indicator: lighted
Segmented circle: no
Lights: ACTVT MIRL RY 12/30 - CTAF.
Beacon: white-green (lighted land airport)
Operates sunset to sunrise.

Airport Communications

CTAF/UNICOM: 122.8
RAZORBACK APPROACH: 126.6 [0530-2300]
RAZORBACK DEPARTURE: 126.6 [0530-2300]
WX AWOS-3 at ASG (19 nm W): 124.675 (479-750-2967)
  • APCH/DEP SVC PRVDD BY MEMPHIS ARTCC ON FREQS 126.1/269.0 (FAYETTEVILLE RCAG) WHEN RAZORBACK APCH CTL CLSD.

Nearby radio navigation aids

VOR radial/distance  VOR name  Freq  Var
RZCr116/20.4RAZORBACK VORTAC116.4004E
DAKr077/21.6DRAKE VOR/DME115.2507E
HROr237/29.9HARRISON VOR/DME112.5004E

 
NDB name  Hdg/Dist  Freq  Var  ID
SILOAM SPRINGS097/36.228404ESLG ... .-.. --.

Airport Services

Fuel available: 100LL
SELF SERVICE FUEL AVBL 24 HRS WITH CREDIT CARD.
Parking: tiedowns

Runway Information

Runway 12/30

Dimensions: 3601 x 60 ft. / 1098 x 18 m
Surface: asphalt, in good condition
Weight bearing capacity: 
Single wheel: 12.5
Runway edge lights: medium intensity
RUNWAY 12  RUNWAY 30
Latitude: 36-04.851988N36-04.514875N
Longitude: 093-45.602728W093-45.001023W
Elevation: 1743.6 ft.1744.9 ft.
Traffic pattern: leftleft
Runway heading: 124 magnetic, 125 true304 magnetic, 305 true
Markings: nonprecision, in fair conditionnonprecision, in fair condition
Touchdown point: yes, no lightsyes, no lights

Runway 3/21

Dimensions: 1250 x 60 ft. / 381 x 18 m
Surface: turf, in good condition
STEEP DROP OFF AT RY ENDS.
RUNWAY 3  RUNWAY 21
Traffic pattern: leftleft
Obstructions: 8 ft. trees, 250 ft. from runway, 31:1 slope to clearnone

Airport Ownership and Management from official FAA records

Ownership: Publicly-owned
Owner: CITY OF HUNTSVILLE
PO BOX 844
HUNTSVILLE, AR 72740
Phone 479-738-6607
Manager: CHARLES COGER
PO BOX 844
HUNTSVILLE, AR 72740
Phone 479-738-7287

Airport Operational Statistics

Aircraft based on the field: 26
Single engine airplanes: 23
Multi engine airplanes: 1
Ultralights: 2
    
Aircraft operations: avg 96/week *
60% local general aviation
36% transient general aviation
4% military
* for 12-month period ending 31 August 2014

Additional Remarks

ULTRALIGHT ACTIVITY ON & INVOF ARPT.

Instrument Procedures

NOTE: All procedures below are presented as PDF files. If you need a reader for these files, you should download the free Adobe Reader.

NOT FOR NAVIGATION. Please procure official charts for flight.
FAA instrument procedures published for use from 26 April 2018 at 901Z to 24 May 2018 at 0900Z.

 
IAPs - Instrument Approach Procedures
RNAV (GPS) RWY 12   download (191KB)
RNAV (GPS) RWY 30   download (188KB)
VOR/DME RWY 12   download (203KB)
NOTE: Special Take-Off Minimums/Departure Procedures apply   download (132KB)

Other nearby airports with instrument procedures:

KASG - Springdale Municipal Airport (19 nm W)
4M1 - Carroll County Airport (19 nm N)
KFYV - Drake Field Airport (21 nm W)
KROG - Rogers Executive Airport - Carter Field (25 nm NW)
KVBT - Bentonville Municipal Airport/Louise M Thaden Field (28 nm NW)
 
Loc | Ops | Rwys | IFR | FBO | Links
Com | Nav | Svcs | Stats | Notes

Branson Jet Center
AirBoss

 
Area around H34 (Huntsville Municipal Airport)
 
Road maps at: MapQuest Bing Google
 
Aerial photo
WARNING: Photo may not be current or correct
Aerial photo of H34 (Huntsville Municipal Airport)
Photo courtesy of the Arkansas Department of Aeronautics
Taken in the Spring of 2007

Do you have a better or more recent aerial photo of Huntsville Municipal Airport that you would like to share? If so, please send us your photo.

 
Sectional chart

 
Airport distance calculator
Flying to Huntsville Municipal Airport? Find the distance to fly.

From to H34

Sunrise and sunset
Times for 22-May-2018
 Local
(UTC-5)
 Zulu
(UTC)
Morning civil twilight05:3610:36
Sunrise06:0511:05
Sunset20:1801:18
Evening civil twilight20:4701:47

Current date and time
Zulu (UTC)  22-May-2018 08:14:24
Local (UTC-5)  22-May-2018 03:14:24
 
METAR
KASG 
18nm W 
220148Z 00000KT 10SM BKN043 24/20 A3002
KFYV 
20nm W 
220753Z AUTO 00000KT 1/4SM FG VV002 18/18 A3001 RMK AO2 SLP150 T01780178
KROG 
24nm NW 
220758Z AUTO 07003KT 10SM CLR 18/18 A3002 RMK AO2 SLP154 T01830178
KVBT 
28nm NW 
220756Z AUTO 00000KT 10SM CLR 19/18 A3003 RMK AO2 SLP161 T01940183
KXNA 
29nm NW 
220753Z AUTO 34003KT 10SM CLR 17/16 A3001 RMK AO2 SLP151 T01720156
KHRO 
31nm E 
220753Z AUTO 00000KT 7SM CLR 18/18 A3002 RMK AO2 SLP154 T01780178 $
KSLG 
35nm W 
220756Z AUTO 00000KT 10SM CLR 18/17 A3001 RMK AO2 SLP155 T01830172
TAF
KFYV 
20nm W 
220520Z 2206/2306 00000KT P6SM SCT040 BKN070 TEMPO 2208/2209 3SM BR FM220900 00000KT 1/2SM FG VV002 FM221300 00000KT 2SM BR SCT003 FM221500 VRB03KT P6SM SCT010 FM221700 17005KT P6SM SCT025 FM222000 17005KT P6SM VCTS SCT035CB FM230000 16004KT P6SM SCT250
KROG 
24nm NW 
220520Z 2206/2306 00000KT P6SM SKC TEMPO 2208/2209 3SM BR FM220900 00000KT 1/2SM FG VV002 FM221300 00000KT 2SM BR SCT003 FM221500 VRB03KT P6SM SCT010 FM221700 14005KT P6SM SCT025 FM222000 17005KT P6SM VCTS SCT035CB FM230000 14004KT P6SM SCT250
NOTAMs
Click for the latest NOTAMs
NOTAMs are issued by the DoD/FAA and will open in a separate window not controlled by AirNav.

 

 
 

FBO, Fuel Providers, and Aircraft Ground Support

  
 Business Name 
 
 Contact 
 
 Services / Description 
 
Fuel Prices
 
Comments
  
Huntsville Municipal Airport 479-738-1122
no information available

If you are affiliated with Huntsville Municipal Airport and would like to show here your services, contact info, web link, logo, and more, click here
100LL
SS $3.90 
 Updated 16-May-2018
 
   write
SS=Self service
Update Fuel Prices
 

Would you like to see your business listed on this page?

 If your business provides an interesting product or service to pilots, flight crews, aircraft, or users of the Huntsville Municipal Airport, you should consider listing it here.  To start the listing process, click on the button below
 
Add a business
 

Other Pages about Huntsville Municipal Airport

Update a link
 
Copyright © AirNav, LLC. All rights reserved. Privacy Policy  Contact